SCP
0 0 0 0 -0 0 0 0 0 0 0 0 0 0 0 0 -0 0 0 0 0 0 0 0 0 0 0 0 0 0 -0 0 0 0 0 0 0 0 0 0 0 0 0 0 0 0 0 0 0 0 0 0 0 0
0 0 0 0 0 0 0 0 0 0 0 0 0 0 0 0 -0 0 0 0 0 0 0 0 0 0 0 0 0 0 0 0 0 0 0 0 0 0 0 0 0 0 0 0 0 0 0 0 0 0 0 0 0 0
0 0 0 0 0 0 0 0 0 0 0 0 0 0 0 -0 -0 0 0 0 0 0 0 0 0 0 0 0 0 0 0 0 0 0 0 0 0 0 0 0 0 0 0 0 0 0 0 0 0 0 0 0 0 0
0 0 0 0 0 0 0 0 0 0 0 0 0 0 -0 -0 -0 0 0 0 0 0 0 0 0 0 0 0 0 0 0 0 0 0 0 0 0 0 0 0 0 0 0 0 0 0 0 0 0 0 0 0 0 0
0 0 0 0 0 0 0 0 0 0 0 0 0 -0 -0 -0 -0 0 0 0 0 0 0 0 0 0 0 0 0 0 0 0 0 0 0 0 0 0 0 0 0 0 0 0 0 0 0 0 0 0 0 0 0 0
0 0 0 0 0 0 0 0 0 0 0 0 -0 -0 -0 -0 -0 0 0 0 0 0 0 0 0 0 0 0 0 0 0 -0 0 0 0 0 0 0 0 0 0 0 0 0 0 0 0 0 0 0 0 0 0 0
0 0 0 0 0 0 0 0 0 0 0 0 -0 -0 -0 -0 0 0 0 0 0 0 0 0 0 0 0 0 0 0 0 0 0 0 0 0 0 0 -0 -0 -0 -0 -0 -0 -0 0 -0 0 -0 0 0 0 0 0
0 0 0 0 0 0 0 0 0 0 0 -0 -0 -0 -0 -0 0 0 0 0 0 0 0 0 0 0 0 0 0 0 0 0 0 0 0 0 -0 0 0 -0 -0 -0 -0 0 -0 -0 -0 -0 -0 -0 -0 0 0 0
0 0 0 0 0 0 0 0 0 0 0 -0 -0 0 0 0 0 0 -0 0 0 0 0 0 0 0 0 0 0 0 0 0 0 0 0 -0 0 -0 -0 -0 -0 -0 0 0 -0 -0 -0 0 -0 0 0 0 0 0
0 0 0 0 0 0 0 0 0 0 0 0 0 0 0 0 -0 -0 0 0 0 0 0 0 0 0 0 0 0 0 0 0 0 -0 0 -0 -0 -0 0 0 -0 -0 0 -0 -0 -0 -0 -0 -0 -0 0 0 0 0
0 0 0 0 0 0 0 0 0 0 0 0 0 0 0 -0 0 0 0 0 0 0 0 0 0 0 0 -0 0 0 0 0 0 0 -0 -0 -0 -0 -0 -0 0 0 0 -0 -0 -0 -0 -0 -0 -0 -0 -0 0 0
0 0 0 0 0 0 0 0 0 0 0 0 0 0 0 0 0 0 0 0 0 0 0 0 0 0 0 -0 -0 -0 0 0 -0 0 0 0 -0 -0 -0 -0 -0 -0 -0 -0 -0 -0 -0 -0 -0 -0 -0 0 0 0
0 0 0 0 0 0 0 0 0 0 0 0 0 0 0 0 0 0 0 0 0 0 0 0 0 0 0 0 0 0 -0 -0 0 0 0 0 0 -0 0 0 -0 -0 -0 -0 -0 -0 -0 -0 -0 -0 -0 -0 -0 -0
0 0 0 0 0 0 0 0 0 0 0 0 0 0 0 0 0 0 0 0 0 0 0 0 0 0 0 0 0 0 0 -0 -0 0 0 0 0 0 0 0 0 0 0 -0 -0 -0 -0 -0 -0 -0 -0 -0 -0 -0
0 0 0 0 0 0 0 0 0 0 0 0 0 0 0 0 0 0 0 0 0 0 0 0 0 0 0 0 0 0 0 0 0 0 0 0 0 0 0 0 0 0 0 0 0 0 -0 -0 -0 -0 0 -0 -0 -0
0 0 0 0 0 0 0 0 0 0 0 0 0 0 0 0 0 0 0 0 0 0 0 0 0 0 0 0 0 0 0 0 0 0 0 0 0 0 0 0 0 0 0 0 0 0 0 -0 -0 0 0 0 0 0
0 0 0 0 0 0 0 0 0 0 0 0 0 0 0 0 0 0 0 0 0 0 0 0 0 0 0 0 0 0 0 0 0 0 0 0 -0 -0 -0 -0 -0 -0 -0 0 0 0 0 0 0 0 0 0 0 0
0 0 0 0 0 0 0 0 0 0 0 0 0 0 0 0 0 0 0 0 0 0 0 0 0 0 0 0 0 0 0 0 0 0 0 0 0 0 0 0 0 -0 -0 -0 -0 0 0 0 0 0 0 0 0 0
0 0 0 0 0 0 0 0 0 0 0 0 0 0 0 0 0 0 0 0 0 0 0 0 0 0 0 0 0 0 0 0 0 0 0 0 0 0 0 0 0 -0 0 -0 -0 -0 0 0 0 0 0 0 0 -0
0 0 0 0 0 0 0 0 0 0 0 0 0 0 0 0 0 0 0 0 0 0 0 0 0 0 0 0 0 0 0 0 0 0 0 0 0 0 0 0 0 0 0 0 0 0 0 0 0 0 0 0 0 -0
0 0 0 0 0 0 0 0 0 0 0 0 0 0 0 0 0 0 0 0 0 0 0 0 0 0 0 0 0 0 0 0 0 0 0 0 0 0 0 0 0 0 0 0 0 0 0 0 0 0 0 0 -0 0
0 0 0 0 0 0 0 0 0 0 0 0 0 0 0 0 0 0 0 0 0 0 0 0 0 0 0 0 0 0 0 0 0 0 0 0 0 0 0 0 0 0 0 0 0 0 0 0 0 0 0 0 0 0
0 0 0 0 0 0 0 0 0 0 0 0 0 0 0 0 0 0 0 0 0 0 0 0 0 0 0 0 0 0 0 0 0 0 0 0 0 0 0 0 0 0 0 0 0 0 0 0 0 0 0 0 0 0
0 0 0 0 0 0 0 0 0 0 0 0 0 0 0 0 0 0 0 0 0 0 0 0 0 0 0 0 0 0 0 0 0 0 0 0 0 0 0 0 0 0 0 0 0 0 0 0 0 0 0 0 0 0
0 0 0 0 0 0 0 0 0 0 0 0 0 0 0 0 0 0 0 0 0 0 0 0 0 0 0 0 0 0 0 0 0 0 0 0 0 0 0 0 0 0 0 0 0 0 0 0 0 0 0 0 0 0
0 0 0 0 0 0 0 0 0 0 0 0 0 0 0 0 0 0 0 0 0 0 0 0 0 0 0 0 0 0 0 0 0 0 0 0 0 0 0 0 0 0 0 0 0 0 0 0 0 0 0 0 0 0
0 0 0 0 0 0 0 0 0 0 0 0 0 0 0 0 0 0 0 0 0 0 0 0 0 0 0 0 0 0 0 0 0 0 0 0 0 0 0 0 0 0 0 0 0 0 0 0 0 0 0 0 0 0
0 0 0 0 0 0 0 0 0 0 0 0 0 0 0 0 0 0 0 0 0 0 0 0 0 0 0 0 0 0 0 0 0 0 0 0 0 0 0 0 0 0 0 0 0 0 0 0 0 0 0 0 0 0
0 0 0 0 0 0 0 0 0 0 0 0 0 0 0 0 0 0 0 0 0 0 0 0 0 0 0 0 0 0 0 0 0 0 0 0 0 0 0 0 0 0 0 0 0 0 0 0 0 0 0 0 0 0
0 0 0 0 0 0 0 0 0 0 0 0 0 0 0 0 0 0 0 0 0 0 0 0 0 0 0 0 0 0 0 0 0 0 0 0 0 0 0 0 0 0 0 0 0 0 0 0 0 0 0 0 0 0
0 0 0 0 0 0 0 0 0 0 0 0 0 0 0 0 0 0 0 0 0 0 0 0 0 0 0 0 0 0 0 0 0 0 0 0 0 0 0 0 0 0 0 0 0 0 0 0 0 0 0 0 0 0
0 0 0 0 0 0 0 0 0 0 0 0 0 0 0 0 0 0 0 0 0 0 0 0 0 0 0 0 0 0 0 0 0 0 0 0 0 0 0 0 0 0 0 0 0 0 0 -0 -0 0 0 0 0 0
0 0 0 0 0 0 0 0 0 0 0 0 0 0 0 0 0 0 0 0 0 0 0 0 0 0 0 0 0 0 0 0 0 0 0 0 0 0 0 0 0 0 0 0 0 0 0 0 0 0 -0 -0 0 0
Wind_Speed_500mb
11 7 5 5 7 11 14 17 19 22 24 25 26 25 22 25 29 35 29 28 27 11 24 14 28 30 23 12 7 31 24 19 10 14 8 8 7 10 7 8 7 8 8 7 8 12 11 54 12 13 9 21 22 25
13 12 10 5 7 10 11 15 17 19 21 21 23 22 21 22 25 33 35 33 32 6 14 24 13 16 20 18 20 16 9 11 9 7 7 7 6 8 17 8 21 11 7 4 10 7 10 23 18 32 25 21 22 25
19 15 12 6 8 9 9 13 16 18 18 18 21 20 20 20 24 31 25 36 35 13 7 17 28 21 18 27 24 11 14 23 19 18 9 5 6 7 11 10 8 16 26 6 5 5 8 22 39 45 40 36 31 30
23 19 15 10 8 8 9 12 15 17 15 16 18 18 19 20 23 27 16 30 43 11 6 9 27 29 36 40 38 25 30 30 28 20 5 3 6 16 8 6 14 12 18 14 5 13 7 29 45 51 48 42 39 38
26 24 20 14 10 9 10 11 14 16 13 13 16 17 18 21 23 22 5 15 35 20 7 20 20 36 42 39 32 26 18 21 19 11 7 5 10 9 8 3 8 27 12 9 5 27 8 15 41 50 47 48 44 43
29 26 24 19 13 11 11 11 13 14 12 11 14 15 17 18 24 12 5 7 32 31 8 7 19 28 51 36 24 25 22 19 13 9 7 9 10 17 6 6 41 57 43 30 12 24 14 13 36 45 46 46 40 38
31 28 29 22 17 14 13 11 11 14 12 11 13 14 14 15 15 8 8 18 27 18 9 13 22 23 37 34 19 18 24 17 15 7 15 12 11 15 4 10 50 55 55 37 37 21 17 29 21 35 38 40 42 43
34 33 32 25 21 18 15 13 11 12 12 12 14 15 9 6 11 9 16 18 18 6 6 5 10 18 30 21 15 22 16 16 25 15 14 12 13 13 7 42 53 54 48 22 37 17 14 15 27 38 38 43 52 58
37 36 34 28 25 22 17 14 11 12 12 13 14 5 2 3 6 12 16 11 12 8 3 4 1 7 25 17 16 14 12 7 12 10 11 17 7 10 16 38 51 58 42 23 26 21 19 33 33 35 40 49 58 60
38 37 34 31 28 24 18 17 13 11 11 11 7 2 2 5 13 12 6 5 5 5 5 4 4 6 16 13 13 18 11 2 5 5 15 6 5 15 39 43 42 43 44 29 36 33 33 40 41 47 48 52 53 47
41 38 35 33 31 27 21 19 14 9 9 6 2 4 4 10 5 4 4 4 5 3 4 6 9 9 8 5 4 11 2 6 6 7 5 4 5 13 36 39 31 31 31 32 32 32 32 34 38 40 43 39 44 53
46 41 39 36 34 28 23 21 14 9 5 2 1 3 1 1 1 4 4 6 3 4 5 5 10 11 6 5 3 9 2 4 3 11 6 6 7 17 26 32 28 23 23 25 23 21 19 18 18 21 28 33 37 45
47 44 40 39 37 33 27 22 16 11 7 5 3 2 2 2 7 7 7 5 3 7 5 6 11 7 2 3 5 6 7 4 3 7 3 7 17 22 18 25 22 17 17 18 21 23 24 28 30 32 30 21 25 29
50 47 44 44 41 37 32 26 20 15 10 5 6 5 7 5 8 9 6 5 5 4 6 12 9 5 5 3 2 3 3 4 6 3 7 7 21 22 22 27 25 21 19 19 22 23 24 25 27 25 25 26 24 23
52 48 49 49 44 42 37 31 23 20 9 6 7 7 11 16 13 6 12 7 5 4 8 9 4 4 5 4 2 2 7 5 7 7 5 13 19 23 29 29 26 26 26 26 25 25 25 27 27 27 25 22 24 26
52 48 56 53 50 47 42 38 30 21 8 8 12 8 13 6 11 16 16 18 12 8 3 1 4 6 5 1 1 9 4 9 6 9 9 12 20 18 23 28 29 31 30 32 27 27 26 26 26 27 24 22 21 19
54 63 59 57 53 52 52 47 27 16 15 11 15 29 23 11 15 15 18 12 13 8 4 5 3 9 5 2 5 7 8 7 13 20 12 21 24 27 37 43 45 45 41 34 32 29 25 24 27 28 20 20 21 26
67 69 58 60 60 62 64 32 18 15 18 27 14 24 31 28 26 23 23 18 16 11 10 7 6 6 8 8 7 9 19 12 15 20 32 27 29 40 40 40 41 41 42 37 32 30 27 26 24 22 25 28 29 33
73 71 66 64 79 64 25 25 17 11 29 14 34 30 31 33 40 34 25 23 21 19 7 8 8 7 8 17 25 29 25 24 27 30 31 35 35 38 37 34 35 36 32 28 24 22 21 22 23 26 28 30 36 41
69 69 68 67 83 36 20 16 24 15 12 18 23 30 39 35 41 45 42 38 33 20 16 10 16 26 32 35 31 31 24 28 32 37 42 37 33 32 33 36 36 32 30 27 26 27 26 26 27 28 33 35 39 48
65 65 66 75 71 44 21 19 21 16 13 17 17 30 13 24 42 47 43 32 35 21 20 50 60 58 49 45 41 36 44 46 44 45 47 43 32 30 32 30 29 23 21 21 18 17 18 20 21 26 32 41 47 36
76 82 71 81 29 25 31 29 14 19 16 10 15 20 11 11 17 23 29 35 22 52 66 68 75 70 69 69 67 66 63 59 55 47 41 36 33 31 26 26 24 25 19 24 27 26 28 30 33 31 29 33 25 20
87 92 47 30 15 27 14 44 24 25 13 17 21 11 10 12 14 21 13 19 26 53 61 67 72 66 69 67 62 54 45 42 41 38 33 32 30 29 25 25 27 26 21 21 24 24 24 25 27 31 30 23 18 17
76 55 25 34 29 18 22 25 25 23 19 15 9 8 7 16 16 12 7 17 47 44 46 54 51 50 49 52 54 50 43 36 33 31 30 30 33 33 30 26 26 23 23 26 26 26 25 25 25 25 20 16 15 16
31 23 22 16 23 19 13 14 17 14 10 11 16 7 10 20 6 8 8 19 34 45 53 53 57 57 56 50 42 34 31 33 32 32 29 31 25 26 32 30 26 25 23 22 22 24 25 25 26 19 15 14 12 13
14 24 30 37 30 20 19 13 20 11 9 10 13 15 21 9 4 10 11 33 39 30 30 37 51 52 53 49 45 38 38 32 29 33 30 29 26 26 28 30 27 25 25 22 23 25 26 25 17 14 12 11 11 10
18 13 29 30 26 20 13 15 31 27 14 13 10 10 8 8 14 15 39 49 45 39 30 29 25 27 37 39 42 38 35 33 30 26 24 26 25 25 28 32 31 28 28 26 24 25 26 19 16 12 12 11 5 7
16 30 23 39 23 34 12 9 13 18 13 23 35 12 19 19 17 30 26 21 15 15 18 20 26 31 36 34 27 35 43 39 34 30 30 30 28 27 25 24 27 25 25 24 24 24 20 16 16 12 8 6 2 7
17 38 41 12 13 18 26 15 18 25 41 44 19 11 16 29 46 38 29 26 23 24 25 24 23 20 26 32 37 39 43 45 38 31 29 30 28 26 26 30 30 24 22 23 20 17 15 14 10 7 12 9 3 2
26 55 18 25 14 17 35 46 50 52 60 62 67 49 46 46 43 42 44 45 44 38 32 28 25 21 19 27 43 49 48 47 39 31 27 25 23 23 29 31 33 25 23 22 20 14 14 16 13 14 15 13 8 6
39 39 14 18 13 32 35 55 53 65 66 72 67 65 67 49 47 49 47 44 46 41 42 42 39 37 32 27 39 51 54 49 39 28 26 30 32 28 24 26 27 26 25 23 22 16 17 19 19 19 18 18 17 13
34 27 18 7 3 32 38 55 56 57 62 64 60 69 59 45 41 55 58 53 54 56 59 54 52 52 48 39 34 37 46 43 39 35 31 30 33 31 29 32 32 33 33 29 25 24 24 25 25 24 23 22 22 19
16 20 13 15 11 18 30 33 28 22 27 31 45 69 76 52 33 56 55 60 71 75 74 68 63 57 55 53 51 49 48 47 46 47 44 40 37 37 37 40 41 42 41 34 30 29 29 30 30 30 28 26 25 25
Wind_Direction_500mb
208 225 244 302 342 346 347 354 359 2 6 9 12 14 14 11 5 5 6 19 1 307 307 309 322 312 322 324 308 314 337 358 319 12 352 356 338 358 340 16 7 55 320 22 1 33 22 337 26 54 322 309 328 342
217 223 235 264 321 332 341 344 351 355 358 4 8 10 9 7 3 5 8 20 352 282 314 349 11 355 343 335 291 308 296 294 333 337 350 333 328 336 341 43 17 38 347 29 35 44 309 347 7 1 357 349 345 341
223 219 229 251 300 318 328 333 341 346 349 357 4 3 1 1 3 5 8 13 12 347 343 360 8 3 355 353 339 292 314 335 327 338 310 335 333 325 6 31 28 337 13 59 102 338 313 353 6 13 6 358 354 358
221 224 229 242 276 299 303 318 333 342 344 349 358 358 355 352 353 357 16 20 20 352 349 332 12 17 5 356 350 326 312 317 320 329 4 353 332 354 357 320 31 356 335 341 54 17 359 16 5 4 360 8 8 4
222 226 225 234 260 287 287 308 329 339 339 339 349 351 347 346 344 348 32 12 14 12 291 300 358 17 10 4 2 8 355 340 346 0 19 2 330 351 314 336 40 360 359 5 335 347 350 351 0 8 6 6 9 11
220 225 223 225 245 268 273 291 322 337 331 327 342 343 345 342 336 360 352 345 353 354 331 333 320 357 7 14 11 24 20 10 12 14 351 348 353 2 14 7 358 355 354 357 322 339 30 9 6 15 11 12 11 11
220 223 220 221 236 253 262 274 306 331 324 317 333 331 335 335 344 19 20 326 341 346 343 318 332 345 352 8 9 16 22 27 21 28 8 343 345 10 48 13 337 341 346 6 16 36 23 26 24 25 26 24 30 35
218 220 217 218 229 241 251 256 286 315 317 310 324 321 318 323 339 0 342 346 349 1 0 26 294 332 357 354 360 359 10 26 19 3 356 4 345 32 41 344 344 348 348 10 12 44 79 46 42 38 41 43 38 35
216 215 215 221 225 233 241 244 271 300 311 310 325 315 93 341 341 323 324 335 356 11 36 47 338 286 343 356 353 350 9 42 0 21 19 9 343 38 336 341 355 3 8 8 57 75 53 49 47 45 46 48 44 37
213 214 219 225 221 227 237 238 257 285 296 311 326 180 158 308 321 315 298 336 329 347 336 238 258 279 331 343 354 2 18 49 22 328 335 53 306 350 11 18 16 28 43 47 51 46 55 61 56 51 46 44 42 35
214 218 227 220 216 223 228 229 245 277 285 294 195 150 289 321 310 310 300 12 330 317 247 282 267 283 331 18 297 13 256 347 41 298 82 344 331 339 5 11 14 27 41 51 59 66 70 63 52 41 36 38 45 40
218 219 225 214 213 217 222 221 232 249 237 245 286 302 288 37 337 26 297 298 227 234 237 257 317 291 317 336 336 7 58 1 310 334 69 338 257 339 355 7 10 11 22 31 31 30 27 21 11 7 17 14 17 20
216 219 216 208 208 211 215 213 216 226 220 248 162 99 175 171 24 158 216 274 300 208 215 316 323 310 276 20 73 33 23 260 302 37 251 228 281 328 352 358 354 358 350 357 6 8 6 1 3 359 357 351 349 11
214 215 209 205 205 206 205 205 206 203 192 189 162 324 176 246 239 203 205 172 144 199 312 322 307 322 333 48 119 65 275 22 8 348 248 259 316 330 333 344 343 335 337 325 325 329 338 343 349 351 355 356 353 347
212 210 206 206 203 205 199 198 196 193 202 198 188 232 218 235 252 258 230 246 188 319 302 299 295 310 340 61 341 40 9 263 222 230 237 315 324 317 323 326 323 322 318 311 307 310 318 325 322 326 324 327 346 349
209 206 210 203 202 199 195 180 182 181 213 221 228 237 228 237 246 224 229 247 249 220 207 233 87 47 294 210 174 220 227 222 239 211 225 301 311 313 324 326 321 323 323 323 301 298 301 311 316 319 313 305 322 323
204 208 207 196 198 194 186 176 171 196 209 217 232 223 227 255 254 228 196 176 164 172 199 140 113 219 105 316 241 203 214 224 226 211 251 291 290 306 312 307 302 301 309 304 301 295 293 294 303 304 285 289 296 308
210 209 204 194 191 183 175 172 180 213 230 226 228 227 224 229 232 231 224 227 205 195 181 217 191 179 201 211 226 228 232 243 233 251 286 276 288 305 303 303 308 302 296 299 292 286 285 291 288 276 285 296 301 306
207 206 202 194 190 170 165 180 188 238 224 228 231 230 234 242 244 244 237 220 222 230 213 219 230 210 215 222 236 250 266 282 291 292 290 295 293 301 299 301 303 305 295 293 289 281 279 285 280 282 289 298 305 313
207 208 202 200 194 176 161 192 197 231 223 218 221 229 233 240 253 250 247 240 229 206 201 222 214 225 220 233 252 260 266 291 291 286 288 294 298 294 295 301 304 293 283 287 281 280 284 283 283 289 297 304 310 315
197 201 201 196 186 192 197 176 187 210 200 205 213 213 233 238 243 242 241 235 216 219 230 235 246 250 252 256 262 262 271 282 283 289 292 293 295 288 299 302 304 301 290 280 281 290 285 282 291 305 311 315 316 319
193 185 174 184 191 194 209 191 193 179 190 200 180 197 219 208 215 230 233 213 225 231 235 246 251 256 259 260 263 268 276 282 282 276 276 282 278 287 297 291 290 283 286 300 310 299 297 305 305 307 311 313 315 328
180 176 179 176 178 190 211 182 177 182 160 190 175 196 230 206 208 190 230 228 229 242 246 252 261 265 268 273 274 274 271 265 259 262 271 275 281 278 286 305 286 297 279 280 283 284 287 296 298 300 303 305 318 323
178 176 165 179 194 189 172 185 178 171 180 161 168 210 214 206 181 198 246 247 246 249 250 257 257 256 259 261 257 257 256 253 252 258 265 265 273 268 273 290 286 279 280 269 278 280 281 292 302 307 306 308 318 329
162 174 172 181 186 165 176 170 155 179 168 173 181 212 192 177 175 206 230 254 257 258 264 264 255 252 252 258 256 262 239 231 240 258 264 262 268 257 257 270 270 271 279 277 272 269 281 290 300 292 297 308 308 312
182 179 182 183 169 171 178 159 174 158 138 161 192 182 166 158 167 234 241 256 255 259 271 269 254 248 249 248 249 243 225 227 241 254 265 263 261 262 262 261 263 264 272 271 272 271 272 282 267 271 286 287 300 335
172 170 195 191 178 161 145 155 162 176 171 176 166 141 127 186 225 238 242 247 252 278 285 263 254 246 251 252 245 238 222 226 242 261 260 257 260 261 261 255 255 257 259 265 266 263 273 259 259 270 258 271 260 331
167 172 178 175 165 180 143 140 153 176 183 173 151 166 180 199 218 228 241 249 240 243 241 242 250 254 244 241 240 227 221 221 231 248 258 261 263 266 259 248 248 252 243 234 237 251 261 250 267 258 221 201 262 335
169 177 153 163 143 185 196 176 191 179 175 175 176 185 216 222 236 241 245 244 236 232 240 246 245 248 243 234 223 210 210 216 222 236 253 261 262 263 265 254 259 250 233 229 239 247 245 255 256 210 171 182 207 335
175 170 152 167 169 203 205 200 197 199 199 205 207 218 232 234 239 242 241 249 247 242 250 247 225 234 254 240 220 211 210 216 226 239 254 267 273 269 261 249 242 250 231 228 223 225 233 229 217 191 194 193 201 188
164 174 138 166 211 206 206 205 204 204 206 210 211 219 229 234 238 242 243 250 251 247 237 227 232 244 238 233 225 222 222 222 228 240 252 260 266 275 261 237 229 236 231 230 224 225 228 218 209 202 206 198 195 193
171 174 145 137 210 180 190 189 195 198 200 204 210 221 226 229 229 237 242 242 242 242 242 232 234 240 240 243 249 240 237 234 238 241 254 267 264 260 247 233 228 230 230 231 223 223 224 217 210 210 211 205 200 203
161 165 150 123 131 167 176 173 185 183 195 206 216 222 227 223 230 239 245 246 247 250 252 251 248 252 254 254 252 247 246 246 244 246 250 258 256 249 240 233 232 224 224 226 218 221 222 219 213 214 213 211 210 211
Wind_Speed_850mb
11 7 5 5 7 11 14 17 19 22 24 25 26 25 22 25 29 35 29 28 27 11 24 14 28 30 23 12 7 31 24 19 10 14 8 8 7 10 7 8 7 8 8 7 8 12 11 54 12 13 9 21 22 25
13 12 10 5 7 10 11 15 17 19 21 21 23 22 21 22 25 33 35 33 32 6 14 24 13 16 20 18 20 16 9 11 9 7 7 7 6 8 17 8 21 11 7 4 10 7 10 23 18 32 25 21 22 25
19 15 12 6 8 9 9 13 16 18 18 18 21 20 20 20 24 31 25 36 35 13 7 17 28 21 18 27 24 11 14 23 19 18 9 5 6 7 11 10 8 16 26 6 5 5 8 22 39 45 40 36 31 30
23 19 15 10 8 8 9 12 15 17 15 16 18 18 19 20 23 27 16 30 43 11 6 9 27 29 36 40 38 25 30 30 28 20 5 3 6 16 8 6 14 12 18 14 5 13 7 29 45 51 48 42 39 38
26 24 20 14 10 9 10 11 14 16 13 13 16 17 18 21 23 22 5 15 35 20 7 20 20 36 42 39 32 26 18 21 19 11 7 5 10 9 8 3 8 27 12 9 5 27 8 15 41 50 47 48 44 43
29 26 24 19 13 11 11 11 13 14 12 11 14 15 17 18 24 12 5 7 32 31 8 7 19 28 51 36 24 25 22 19 13 9 7 9 10 17 6 6 41 57 43 30 12 24 14 13 36 45 46 46 40 38
31 28 29 22 17 14 13 11 11 14 12 11 13 14 14 15 15 8 8 18 27 18 9 13 22 23 37 34 19 18 24 17 15 7 15 12 11 15 4 10 50 55 55 37 37 21 17 29 21 35 38 40 42 43
34 33 32 25 21 18 15 13 11 12 12 12 14 15 9 6 11 9 16 18 18 6 6 5 10 18 30 21 15 22 16 16 25 15 14 12 13 13 7 42 53 54 48 22 37 17 14 15 27 38 38 43 52 58
37 36 34 28 25 22 17 14 11 12 12 13 14 5 2 3 6 12 16 11 12 8 3 4 1 7 25 17 16 14 12 7 12 10 11 17 7 10 16 38 51 58 42 23 26 21 19 33 33 35 40 49 58 60
38 37 34 31 28 24 18 17 13 11 11 11 7 2 2 5 13 12 6 5 5 5 5 4 4 6 16 13 13 18 11 2 5 5 15 6 5 15 39 43 42 43 44 29 36 33 33 40 41 47 48 52 53 47
41 38 35 33 31 27 21 19 14 9 9 6 2 4 4 10 5 4 4 4 5 3 4 6 9 9 8 5 4 11 2 6 6 7 5 4 5 13 36 39 31 31 31 32 32 32 32 34 38 40 43 39 44 53
46 41 39 36 34 28 23 21 14 9 5 2 1 3 1 1 1 4 4 6 3 4 5 5 10 11 6 5 3 9 2 4 3 11 6 6 7 17 26 32 28 23 23 25 23 21 19 18 18 21 28 33 37 45
47 44 40 39 37 33 27 22 16 11 7 5 3 2 2 2 7 7 7 5 3 7 5 6 11 7 2 3 5 6 7 4 3 7 3 7 17 22 18 25 22 17 17 18 21 23 24 28 30 32 30 21 25 29
50 47 44 44 41 37 32 26 20 15 10 5 6 5 7 5 8 9 6 5 5 4 6 12 9 5 5 3 2 3 3 4 6 3 7 7 21 22 22 27 25 21 19 19 22 23 24 25 27 25 25 26 24 23
52 48 49 49 44 42 37 31 23 20 9 6 7 7 11 16 13 6 12 7 5 4 8 9 4 4 5 4 2 2 7 5 7 7 5 13 19 23 29 29 26 26 26 26 25 25 25 27 27 27 25 22 24 26
52 48 56 53 50 47 42 38 30 21 8 8 12 8 13 6 11 16 16 18 12 8 3 1 4 6 5 1 1 9 4 9 6 9 9 12 20 18 23 28 29 31 30 32 27 27 26 26 26 27 24 22 21 19
54 63 59 57 53 52 52 47 27 16 15 11 15 29 23 11 15 15 18 12 13 8 4 5 3 9 5 2 5 7 8 7 13 20 12 21 24 27 37 43 45 45 41 34 32 29 25 24 27 28 20 20 21 26
67 69 58 60 60 62 64 32 18 15 18 27 14 24 31 28 26 23 23 18 16 11 10 7 6 6 8 8 7 9 19 12 15 20 32 27 29 40 40 40 41 41 42 37 32 30 27 26 24 22 25 28 29 33
73 71 66 64 79 64 25 25 17 11 29 14 34 30 31 33 40 34 25 23 21 19 7 8 8 7 8 17 25 29 25 24 27 30 31 35 35 38 37 34 35 36 32 28 24 22 21 22 23 26 28 30 36 41
69 69 68 67 83 36 20 16 24 15 12 18 23 30 39 35 41 45 42 38 33 20 16 10 16 26 32 35 31 31 24 28 32 37 42 37 33 32 33 36 36 32 30 27 26 27 26 26 27 28 33 35 39 48
65 65 66 75 71 44 21 19 21 16 13 17 17 30 13 24 42 47 43 32 35 21 20 50 60 58 49 45 41 36 44 46 44 45 47 43 32 30 32 30 29 23 21 21 18 17 18 20 21 26 32 41 47 36
76 82 71 81 29 25 31 29 14 19 16 10 15 20 11 11 17 23 29 35 22 52 66 68 75 70 69 69 67 66 63 59 55 47 41 36 33 31 26 26 24 25 19 24 27 26 28 30 33 31 29 33 25 20
87 92 47 30 15 27 14 44 24 25 13 17 21 11 10 12 14 21 13 19 26 53 61 67 72 66 69 67 62 54 45 42 41 38 33 32 30 29 25 25 27 26 21 21 24 24 24 25 27 31 30 23 18 17
76 55 25 34 29 18 22 25 25 23 19 15 9 8 7 16 16 12 7 17 47 44 46 54 51 50 49 52 54 50 43 36 33 31 30 30 33 33 30 26 26 23 23 26 26 26 25 25 25 25 20 16 15 16
31 23 22 16 23 19 13 14 17 14 10 11 16 7 10 20 6 8 8 19 34 45 53 53 57 57 56 50 42 34 31 33 32 32 29 31 25 26 32 30 26 25 23 22 22 24 25 25 26 19 15 14 12 13
14 24 30 37 30 20 19 13 20 11 9 10 13 15 21 9 4 10 11 33 39 30 30 37 51 52 53 49 45 38 38 32 29 33 30 29 26 26 28 30 27 25 25 22 23 25 26 25 17 14 12 11 11 10
18 13 29 30 26 20 13 15 31 27 14 13 10 10 8 8 14 15 39 49 45 39 30 29 25 27 37 39 42 38 35 33 30 26 24 26 25 25 28 32 31 28 28 26 24 25 26 19 16 12 12 11 5 7
16 30 23 39 23 34 12 9 13 18 13 23 35 12 19 19 17 30 26 21 15 15 18 20 26 31 36 34 27 35 43 39 34 30 30 30 28 27 25 24 27 25 25 24 24 24 20 16 16 12 8 6 2 7
17 38 41 12 13 18 26 15 18 25 41 44 19 11 16 29 46 38 29 26 23 24 25 24 23 20 26 32 37 39 43 45 38 31 29 30 28 26 26 30 30 24 22 23 20 17 15 14 10 7 12 9 3 2
26 55 18 25 14 17 35 46 50 52 60 62 67 49 46 46 43 42 44 45 44 38 32 28 25 21 19 27 43 49 48 47 39 31 27 25 23 23 29 31 33 25 23 22 20 14 14 16 13 14 15 13 8 6
39 39 14 18 13 32 35 55 53 65 66 72 67 65 67 49 47 49 47 44 46 41 42 42 39 37 32 27 39 51 54 49 39 28 26 30 32 28 24 26 27 26 25 23 22 16 17 19 19 19 18 18 17 13
34 27 18 7 3 32 38 55 56 57 62 64 60 69 59 45 41 55 58 53 54 56 59 54 52 52 48 39 34 37 46 43 39 35 31 30 33 31 29 32 32 33 33 29 25 24 24 25 25 24 23 22 22 19
16 20 13 15 11 18 30 33 28 22 27 31 45 69 76 52 33 56 55 60 71 75 74 68 63 57 55 53 51 49 48 47 46 47 44 40 37 37 37 40 41 42 41 34 30 29 29 30 30 30 28 26 25 25
Wind_Direction_850mb
208 225 244 302 342 346 347 354 359 2 6 9 12 14 14 11 5 5 6 19 1 307 307 309 322 312 322 324 308 314 337 358 319 12 352 356 338 358 340 16 7 55 320 22 1 33 22 337 26 54 322 309 328 342
217 223 235 264 321 332 341 344 351 355 358 4 8 10 9 7 3 5 8 20 352 282 314 349 11 355 343 335 291 308 296 294 333 337 350 333 328 336 341 43 17 38 347 29 35 44 309 347 7 1 357 349 345 341
223 219 229 251 300 318 328 333 341 346 349 357 4 3 1 1 3 5 8 13 12 347 343 360 8 3 355 353 339 292 314 335 327 338 310 335 333 325 6 31 28 337 13 59 102 338 313 353 6 13 6 358 354 358
221 224 229 242 276 299 303 318 333 342 344 349 358 358 355 352 353 357 16 20 20 352 349 332 12 17 5 356 350 326 312 317 320 329 4 353 332 354 357 320 31 356 335 341 54 17 359 16 5 4 360 8 8 4
222 226 225 234 260 287 287 308 329 339 339 339 349 351 347 346 344 348 32 12 14 12 291 300 358 17 10 4 2 8 355 340 346 0 19 2 330 351 314 336 40 360 359 5 335 347 350 351 0 8 6 6 9 11
220 225 223 225 245 268 273 291 322 337 331 327 342 343 345 342 336 360 352 345 353 354 331 333 320 357 7 14 11 24 20 10 12 14 351 348 353 2 14 7 358 355 354 357 322 339 30 9 6 15 11 12 11 11
220 223 220 221 236 253 262 274 306 331 324 317 333 331 335 335 344 19 20 326 341 346 343 318 332 345 352 8 9 16 22 27 21 28 8 343 345 10 48 13 337 341 346 6 16 36 23 26 24 25 26 24 30 35
218 220 217 218 229 241 251 256 286 315 317 310 324 321 318 323 339 0 342 346 349 1 0 26 294 332 357 354 360 359 10 26 19 3 356 4 345 32 41 344 344 348 348 10 12 44 79 46 42 38 41 43 38 35
216 215 215 221 225 233 241 244 271 300 311 310 325 315 93 341 341 323 324 335 356 11 36 47 338 286 343 356 353 350 9 42 0 21 19 9 343 38 336 341 355 3 8 8 57 75 53 49 47 45 46 48 44 37
213 214 219 225 221 227 237 238 257 285 296 311 326 180 158 308 321 315 298 336 329 347 336 238 258 279 331 343 354 2 18 49 22 328 335 53 306 350 11 18 16 28 43 47 51 46 55 61 56 51 46 44 42 35
214 218 227 220 216 223 228 229 245 277 285 294 195 150 289 321 310 310 300 12 330 317 247 282 267 283 331 18 297 13 256 347 41 298 82 344 331 339 5 11 14 27 41 51 59 66 70 63 52 41 36 38 45 40
218 219 225 214 213 217 222 221 232 249 237 245 286 302 288 37 337 26 297 298 227 234 237 257 317 291 317 336 336 7 58 1 310 334 69 338 257 339 355 7 10 11 22 31 31 30 27 21 11 7 17 14 17 20
216 219 216 208 208 211 215 213 216 226 220 248 162 99 175 171 24 158 216 274 300 208 215 316 323 310 276 20 73 33 23 260 302 37 251 228 281 328 352 358 354 358 350 357 6 8 6 1 3 359 357 351 349 11
214 215 209 205 205 206 205 205 206 203 192 189 162 324 176 246 239 203 205 172 144 199 312 322 307 322 333 48 119 65 275 22 8 348 248 259 316 330 333 344 343 335 337 325 325 329 338 343 349 351 355 356 353 347
212 210 206 206 203 205 199 198 196 193 202 198 188 232 218 235 252 258 230 246 188 319 302 299 295 310 340 61 341 40 9 263 222 230 237 315 324 317 323 326 323 322 318 311 307 310 318 325 322 326 324 327 346 349
209 206 210 203 202 199 195 180 182 181 213 221 228 237 228 237 246 224 229 247 249 220 207 233 87 47 294 210 174 220 227 222 239 211 225 301 311 313 324 326 321 323 323 323 301 298 301 311 316 319 313 305 322 323
204 208 207 196 198 194 186 176 171 196 209 217 232 223 227 255 254 228 196 176 164 172 199 140 113 219 105 316 241 203 214 224 226 211 251 291 290 306 312 307 302 301 309 304 301 295 293 294 303 304 285 289 296 308
210 209 204 194 191 183 175 172 180 213 230 226 228 227 224 229 232 231 224 227 205 195 181 217 191 179 201 211 226 228 232 243 233 251 286 276 288 305 303 303 308 302 296 299 292 286 285 291 288 276 285 296 301 306
207 206 202 194 190 170 165 180 188 238 224 228 231 230 234 242 244 244 237 220 222 230 213 219 230 210 215 222 236 250 266 282 291 292 290 295 293 301 299 301 303 305 295 293 289 281 279 285 280 282 289 298 305 313
207 208 202 200 194 176 161 192 197 231 223 218 221 229 233 240 253 250 247 240 229 206 201 222 214 225 220 233 252 260 266 291 291 286 288 294 298 294 295 301 304 293 283 287 281 280 284 283 283 289 297 304 310 315
197 201 201 196 186 192 197 176 187 210 200 205 213 213 233 238 243 242 241 235 216 219 230 235 246 250 252 256 262 262 271 282 283 289 292 293 295 288 299 302 304 301 290 280 281 290 285 282 291 305 311 315 316 319
193 185 174 184 191 194 209 191 193 179 190 200 180 197 219 208 215 230 233 213 225 231 235 246 251 256 259 260 263 268 276 282 282 276 276 282 278 287 297 291 290 283 286 300 310 299 297 305 305 307 311 313 315 328
180 176 179 176 178 190 211 182 177 182 160 190 175 196 230 206 208 190 230 228 229 242 246 252 261 265 268 273 274 274 271 265 259 262 271 275 281 278 286 305 286 297 279 280 283 284 287 296 298 300 303 305 318 323
178 176 165 179 194 189 172 185 178 171 180 161 168 210 214 206 181 198 246 247 246 249 250 257 257 256 259 261 257 257 256 253 252 258 265 265 273 268 273 290 286 279 280 269 278 280 281 292 302 307 306 308 318 329
162 174 172 181 186 165 176 170 155 179 168 173 181 212 192 177 175 206 230 254 257 258 264 264 255 252 252 258 256 262 239 231 240 258 264 262 268 257 257 270 270 271 279 277 272 269 281 290 300 292 297 308 308 312
182 179 182 183 169 171 178 159 174 158 138 161 192 182 166 158 167 234 241 256 255 259 271 269 254 248 249 248 249 243 225 227 241 254 265 263 261 262 262 261 263 264 272 271 272 271 272 282 267 271 286 287 300 335
172 170 195 191 178 161 145 155 162 176 171 176 166 141 127 186 225 238 242 247 252 278 285 263 254 246 251 252 245 238 222 226 242 261 260 257 260 261 261 255 255 257 259 265 266 263 273 259 259 270 258 271 260 331
167 172 178 175 165 180 143 140 153 176 183 173 151 166 180 199 218 228 241 249 240 243 241 242 250 254 244 241 240 227 221 221 231 248 258 261 263 266 259 248 248 252 243 234 237 251 261 250 267 258 221 201 262 335
169 177 153 163 143 185 196 176 191 179 175 175 176 185 216 222 236 241 245 244 236 232 240 246 245 248 243 234 223 210 210 216 222 236 253 261 262 263 265 254 259 250 233 229 239 247 245 255 256 210 171 182 207 335
175 170 152 167 169 203 205 200 197 199 199 205 207 218 232 234 239 242 241 249 247 242 250 247 225 234 254 240 220 211 210 216 226 239 254 267 273 269 261 249 242 250 231 228 223 225 233 229 217 191 194 193 201 188
164 174 138 166 211 206 206 205 204 204 206 210 211 219 229 234 238 242 243 250 251 247 237 227 232 244 238 233 225 222 222 222 228 240 252 260 266 275 261 237 229 236 231 230 224 225 228 218 209 202 206 198 195 193
171 174 145 137 210 180 190 189 195 198 200 204 210 221 226 229 229 237 242 242 242 242 242 232 234 240 240 243 249 240 237 234 238 241 254 267 264 260 247 233 228 230 230 231 223 223 224 217 210 210 211 205 200 203
161 165 150 123 131 167 176 173 185 183 195 206 216 222 227 223 230 239 245 246 247 250 252 251 248 252 254 254 252 247 246 246 244 246 250 258 256 249 240 233 232 224 224 226 218 221 222 219 213 214 213 211 210 211